Location: Unspecified
(33.7438°N, 118.3804°W)
Time: 08:58:06
(UTC+00:00)

Daily predictions for brighter satellites

Satellite Brightness Start Highest point End
(mag) Time Altitude Azimuth Time Altitude Azimuth Time Altitude Azimuth
PSLV R/B 3.9 12:00:15 10° N 12:04:29 49° WNW 12:08:42 10° SSW
H-2A R/B 2.7 12:05:56 10° SSW 12:06:53 11° S 12:07:41 10° SSE
Meteor 1-31 Rocket 3.6 12:03:28 10° NNE 12:07:17 52° E 12:11:07 10° S
Cosmos 2173 Rocket 4.1 12:02:05 10° NNW 12:07:58 53° W 12:13:50 10° SSW
Cosmos 2227 Rocket 2.2 12:03:52 10° NNW 12:09:31 70° WSW 12:15:08 10° S
ATLAS 2A CENTAUR R/B 3.0 12:01:24 10° WSW 12:09:48 39° S 12:13:54 10° ESE
Lacrosse 5 rocket 3.9 12:07:21 10° SSE 12:10:20 18° ESE 12:13:25 10° ENE
Meteor PRIRODA 4.3 12:08:03 10° NNE 12:11:40 55° E 12:15:13 10° S
NOSS 7 (E) 4.5 12:09:47 10° SW 12:13:10 55° WNW 12:16:08 10° NNE
SeaSat 1 2.7 12:10:59 10° SSE 12:15:54 79° ENE 12:20:50 10° NNW
Cosmos 1777 Rocket 4.1 12:11:23 10° SSW 12:16:34 68° WNW 12:21:46 10° NNE
